contact:dominique.lefevre@mio.osupytheas.fr, maurice.libes@osupytheas.fr, didier.mallarino@osupytheas.fr
Project:EMSO http://www.emso-fr.org/EMSO-France
Depth: 2436.0 m
Title:EMSO Ligure Ouest : Data MII capteur AQUADOPP
Date,Latitude,Longitude,X_East,Y_North,Z_Up,Amplitude_X,Amplitude_Y,Amplitude_Z,Batterie,SoundSpeed,Heading,Pitch,Roll,Pressure,TIS,Speed,Direction
, degrees North, degrees East, m.s-1, m.s-1,m.s-1, 1, 1, 1, Volt, m.s-1, degree, degree, degree, dbar, degree_C, m.s-1, degree
2023-12-23T00:04:03,42.805,6.029,-0.009,0.03,-0.035,104.0,103.0,102.0,13.4,1505.2,353.9,-0.8,1.8,2471.414,13.29,0.031,343.3
2023-12-23T00:07:03,42.805,6.029,-0.017,0.016,-0.025,104.0,104.0,101.0,13.3,1505.2,356.6,-0.8,1.8,2471.435,13.29,0.023,313.3
2023-12-23T00:10:03,42.805,6.029,-0.021,0.036,0.004,102.0,104.0,102.0,13.4,1505.2,339.1,-0.8,1.8,2471.413,13.29,0.041,329.7
2023-12-23T00:13:03,42.805,6.029,0.009,0.045,-0.004,104.0,101.0,100.0,13.4,1505.2,342.5,-0.8,1.8,2471.429,13.29,0.045,11.3
2023-12-23T00:16:03,42.805,6.029,0.0,0.024,-0.025,103.0,102.0,101.0,13.4,1505.2,347.1,-0.8,1.8,2471.411,13.29,0.024,0.0
2023-12-23T00:19:03,42.805,6.029,0.017,0.028,-0.014,103.0,104.0,101.0,13.4,1505.2,1.6,-0.8,1.8,2471.372,13.29,0.032,31.3
2023-12-23T00:22:03,42.805,6.029,-0.005,0.034,-0.015,103.0,104.0,100.0,13.4,1505.2,356.1,-0.8,1.8,2471.428,13.29,0.034,351.6
2023-12-23T00:25:03,42.805,6.029,0.006,0.035,0.015,104.0,102.0,101.0,13.3,1505.2,355.7,-0.7,1.8,2471.398,13.29,0.035,9.7
2023-12-23T00:28:03,42.805,6.029,0.016,0.009,-0.03,102.0,103.0,101.0,13.3,1505.2,357.4,-0.8,1.8,2471.445,13.29,0.018,60.6
2023-12-23T00:31:03,42.805,6.029,-0.008,0.027,-0.02,103.0,103.0,101.0,13.3,1505.2,352.8,-0.8,1.8,2471.407,13.29,0.028,343.5
2023-12-23T00:34:03,42.805,6.029,-0.013,0.04,0.013,103.0,103.0,101.0,13.4,1505.2,350.3,-0.8,1.8,2471.395,13.29,0.042,342.0
2023-12-23T00:37:03,42.805,6.029,0.006,0.004,-0.029,103.0,103.0,101.0,13.4,1505.2,356.6,-0.7,1.8,2471.385,13.29,0.007,56.3
2023-12-23T00:40:03,42.805,6.029,0.021,0.009,-0.022,102.0,104.0,102.0,13.4,1505.2,2.4,-0.8,1.8,2471.417,13.29,0.022,66.8
2023-12-23T00:43:03,42.805,6.029,-0.018,0.026,-0.035,102.0,104.0,99.0,13.3,1505.2,346.6,-0.7,1.8,2471.395,13.29,0.031,325.3
2023-12-23T00:46:03,42.805,6.029,0.011,0.018,-0.026,103.0,102.0,102.0,13.4,1505.2,358.3,-0.7,1.8,2471.381,13.29,0.021,31.4
2023-12-23T00:49:03,42.805,6.029,-0.003,0.046,-0.002,102.0,103.0,101.0,13.3,1505.2,350.9,-0.8,1.8,2471.392,13.29,0.046,356.3
2023-12-23T00:52:03,42.805,6.029,0.002,0.009,-0.032,103.0,102.0,102.0,13.4,1505.2,2.2,-0.8,1.8,2471.405,13.29,0.009,12.5
2023-12-23T00:55:03,42.805,6.029,-0.004,0.019,-0.01,101.0,104.0,101.0,13.4,1505.2,340.6,-0.8,1.8,2471.406,13.29,0.019,348.1
2023-12-23T00:58:03,42.805,6.029,-0.017,0.037,-0.043,103.0,100.0,102.0,13.3,1505.2,352.9,-0.7,1.8,2471.394,13.29,0.04,335.3
2023-12-23T01:04:03,42.805,6.029,-0.009,0.071,-0.016,105.0,104.0,102.0,13.4,1505.2,346.3,-0.8,1.8,2471.392,13.29,0.071,352.8
2023-12-23T01:07:03,42.805,6.029,0.003,0.033,-0.013,104.0,103.0,101.0,13.4,1505.2,340.8,-0.7,1.8,2471.441,13.29,0.033,5.2
2023-12-23T01:10:03,42.805,6.029,0.008,0.012,0.0,102.0,103.0,101.0,13.4,1505.2,343.0,-0.8,1.8,2471.46,13.29,0.014,33.7
2023-12-23T01:13:02,42.805,6.029,-0.005,0.029,-0.023,102.0,103.0,102.0,13.4,1505.2,356.0,-0.8,1.8,2471.428,13.29,0.029,350.2
2023-12-23T01:16:03,42.805,6.029,-0.007,0.016,-0.019,103.0,103.0,101.0,13.4,1505.2,356.9,-0.8,1.8,2471.444,13.29,0.017,336.4
2023-12-23T01:19:03,42.805,6.029,-0.018,0.017,-0.034,103.0,103.0,101.0,13.3,1505.2,339.9,-0.8,1.8,2471.439,13.29,0.024,313.4
2023-12-23T01:22:03,42.805,6.029,-0.009,0.019,-0.005,101.0,102.0,101.0,13.4,1505.2,344.1,-0.8,1.8,2471.448,13.29,0.021,334.7
2023-12-23T01:25:03,42.805,6.029,0.011,0.013,-0.026,103.0,102.0,101.0,13.4,1505.2,348.5,-0.7,1.8,2471.414,13.29,0.017,40.2
2023-12-23T01:28:03,42.805,6.029,0.006,0.032,0.009,102.0,102.0,101.0,13.4,1505.2,356.1,-0.7,1.8,2471.411,13.29,0.032,10.6
2023-12-23T01:31:03,42.805,6.029,0.005,0.028,-0.015,103.0,102.0,101.0,13.3,1505.2,352.8,-0.8,1.8,2471.44,13.29,0.028,10.1
2023-12-23T01:34:03,42.805,6.029,-0.02,0.04,-0.031,102.0,103.0,102.0,13.3,1505.2,347.1,-0.8,1.8,2471.487,13.29,0.044,333.4
2023-12-23T01:37:03,42.805,6.029,0.025,0.003,-0.01,102.0,104.0,101.0,13.4,1505.2,356.4,-0.7,1.8,2471.423,13.29,0.025,83.2
2023-12-23T01:40:03,42.805,6.029,0.013,0.017,-0.017,102.0,104.0,100.0,13.4,1505.2,355.9,-0.7,1.8,2471.447,13.29,0.021,37.4
2023-12-23T01:43:03,42.805,6.029,0.009,0.024,-0.044,101.0,103.0,102.0,13.4,1505.2,347.1,-0.8,1.8,2471.443,13.29,0.025,20.6
2023-12-23T01:46:03,42.805,6.029,0.004,0.018,-0.023,104.0,102.0,102.0,13.4,1505.2,357.5,-0.8,1.8,2471.423,13.29,0.018,12.5
2023-12-23T01:49:03,42.805,6.029,0.022,0.014,-0.021,105.0,102.0,101.0,13.3,1505.2,352.5,-0.8,1.8,2471.41,13.29,0.026,57.5
2023-12-23T01:52:03,42.805,6.029,-0.03,0.022,-0.05,102.0,103.0,101.0,13.3,1505.2,340.8,-0.8,1.8,2471.444,13.29,0.037,306.3
2023-12-23T01:55:03,42.805,6.029,-0.024,0.024,-0.014,102.0,104.0,101.0,13.4,1505.2,348.8,-0.8,1.8,2471.442,13.29,0.033,315.0
2023-12-23T01:58:03,42.805,6.029,0.005,0.044,-0.007,102.0,103.0,101.0,13.3,1505.2,342.2,-0.8,1.8,2471.461,13.29,0.044,6.5
2023-12-23T02:04:03,42.805,6.029,0.007,0.027,-0.03,103.0,102.0,101.0,13.3,1505.2,347.1,-0.8,1.9,2471.503,13.29,0.027,14.5
2023-12-23T02:07:03,42.805,6.029,-0.011,0.037,-0.051,102.0,102.0,101.0,13.4,1505.2,3.9,-0.8,1.8,2471.492,13.29,0.038,343.4
2023-12-23T02:10:03,42.805,6.029,-0.009,0.003,-0.035,101.0,103.0,101.0,13.4,1505.2,0.7,-0.7,1.8,2471.481,13.29,0.009,288.4
2023-12-23T02:13:03,42.805,6.029,0.004,0.021,-0.004,103.0,103.0,100.0,13.3,1505.2,342.0,-0.8,1.8,2471.496,13.29,0.021,10.8
2023-12-23T02:16:03,42.805,6.029,-0.018,0.03,0.005,103.0,103.0,101.0,13.4,1505.2,343.1,-0.7,1.9,2471.51,13.29,0.034,329.0
2023-12-23T02:19:03,42.805,6.029,-0.008,0.01,-0.067,103.0,103.0,102.0,13.3,1505.2,356.5,-0.8,1.8,2471.495,13.29,0.012,321.3
2023-12-23T02:22:03,42.805,6.029,0.007,0.027,-0.02,102.0,103.0,101.0,13.3,1505.2,345.7,-0.8,1.8,2471.451,13.29,0.027,14.5
2023-12-23T02:25:03,42.805,6.029,0.008,0.011,-0.021,103.0,103.0,102.0,13.3,1505.2,359.1,-0.8,1.8,2471.469,13.29,0.013,36.0
2023-12-23T02:28:03,42.805,6.029,0.008,0.008,-0.033,103.0,103.0,101.0,13.4,1505.2,1.5,-0.8,1.8,2471.464,13.29,0.011,45.0
2023-12-23T02:31:03,42.805,6.029,0.018,0.031,-0.005,101.0,105.0,102.0,13.4,1505.2,338.4,-0.7,1.8,2471.499,13.29,0.035,30.1
2023-12-23T02:34:03,42.805,6.029,-0.008,0.013,-0.003,102.0,103.0,101.0,13.3,1505.2,355.3,-0.8,1.8,2471.472,13.29,0.015,328.4
2023-12-23T02:37:03,42.805,6.029,0.021,0.02,-0.007,102.0,103.0,102.0,13.4,1505.2,351.7,-0.8,1.8,2471.483,13.29,0.028,46.4
2023-12-23T02:40:03,42.805,6.029,0.003,0.024,-0.016,104.0,104.0,102.0,13.4,1505.2,358.2,-0.7,1.8,2471.467,13.29,0.024,7.1
2023-12-23T02:43:03,42.805,6.029,0.01,0.007,-0.045,103.0,102.0,100.0,13.4,1505.2,0.8,-0.8,1.8,2471.46,13.29,0.012,55.0
2023-12-23T02:46:03,42.805,6.029,0.005,0.015,-0.005,103.0,103.0,101.0,13.4,1505.2,350.0,-0.7,1.8,2471.492,13.29,0.015,18.4
2023-12-23T02:49:03,42.805,6.029,-0.003,0.017,0.008,105.0,102.0,100.0,13.4,1505.2,343.4,-0.8,1.8,2471.435,13.29,0.017,350.0
2023-12-23T02:52:03,42.805,6.029,-0.02,0.001,-0.016,103.0,104.0,101.0,13.4,1505.2,348.6,-0.8,1.8,2471.454,13.29,0.02,272.9
2023-12-23T02:55:03,42.805,6.029,-0.001,0.019,-0.025,102.0,102.0,102.0,13.4,1505.2,348.8,-0.8,1.8,2471.47,13.29,0.019,357.0
2023-12-23T02:58:03,42.805,6.029,-0.01,0.025,-0.006,104.0,105.0,101.0,13.3,1505.2,354.1,-0.8,1.8,2471.488,13.29,0.026,338.2
2023-12-23T03:04:03,42.805,6.029,0.003,0.007,-0.025,103.0,103.0,101.0,13.4,1505.2,2.4,-0.8,1.8,2471.531,13.29,0.007,23.2
2023-12-23T03:07:03,42.805,6.029,-0.013,0.014,-0.021,103.0,102.0,101.0,13.3,1505.2,341.3,-0.7,1.8,2471.552,13.29,0.019,317.1
2023-12-23T03:10:03,42.805,6.029,0.017,0.033,-0.011,102.0,102.0,101.0,13.3,1505.2,344.5,-0.7,1.8,2471.547,13.29,0.037,27.3
2023-12-23T03:13:03,42.805,6.029,0.004,0.013,-0.011,104.0,101.0,102.0,13.3,1505.2,348.5,-0.7,1.8,2471.527,13.29,0.013,17.1
2023-12-23T03:16:03,42.805,6.029,0.02,0.013,-0.004,102.0,103.0,102.0,13.4,1505.2,354.0,-0.8,1.9,2471.534,13.29,0.023,57.0
2023-12-23T03:19:03,42.805,6.029,-0.001,0.013,-0.027,103.0,103.0,102.0,13.3,1505.2,1.6,-0.8,1.8,2471.514,13.29,0.013,355.6
2023-12-23T03:22:03,42.805,6.029,-0.001,0.021,0.004,102.0,102.0,102.0,13.4,1505.2,354.9,-0.8,1.8,2471.522,13.29,0.021,357.3
2023-12-23T03:25:03,42.805,6.029,-0.007,0.006,-0.042,104.0,103.0,100.0,13.4,1505.2,350.4,-0.7,1.8,2471.486,13.29,0.009,310.6
2023-12-23T03:28:03,42.805,6.029,0.011,0.036,-0.022,102.0,103.0,101.0,13.4,1505.2,348.6,-0.8,1.8,2471.498,13.29,0.037,17.0
2023-12-23T03:31:03,42.805,6.029,0.007,0.012,-0.036,103.0,102.0,101.0,13.3,1505.2,346.1,-0.7,1.8,2471.515,13.29,0.013,30.3
2023-12-23T03:34:03,42.805,6.029,-0.006,0.025,-0.007,103.0,102.0,101.0,13.4,1505.2,348.3,-0.8,1.8,2471.51,13.29,0.025,346.5
2023-12-23T03:37:03,42.805,6.029,0.003,0.016,-0.038,102.0,102.0,101.0,13.4,1505.2,352.1,-0.7,1.9,2471.488,13.29,0.016,10.6
2023-12-23T03:40:03,42.805,6.029,0.005,0.02,-0.021,103.0,101.0,101.0,13.4,1505.2,0.0,-0.7,1.8,2471.484,13.29,0.02,14.0
2023-12-23T03:43:03,42.805,6.029,0.006,0.006,-0.022,103.0,102.0,101.0,13.4,1505.2,358.4,-0.8,1.8,2471.512,13.29,0.008,45.0
2023-12-23T03:46:03,42.805,6.029,0.004,0.018,-0.013,102.0,102.0,102.0,13.4,1505.2,341.8,-0.7,1.8,2471.53,13.29,0.018,12.5
2023-12-23T03:49:03,42.805,6.029,-0.043,0.049,-0.029,103.0,102.0,102.0,13.4,1505.2,339.3,-0.8,1.8,2471.507,13.29,0.065,318.7
2023-12-23T03:52:03,42.805,6.029,0.009,0.017,-0.02,103.0,102.0,101.0,13.4,1505.2,356.8,-0.8,1.8,2471.467,13.29,0.019,27.9
2023-12-23T03:55:03,42.805,6.029,-0.001,0.008,-0.036,101.0,104.0,101.0,13.4,1505.2,348.8,-0.8,1.8,2471.54,13.29,0.008,352.9
2023-12-23T03:58:03,42.805,6.029,0.0,0.017,-0.021,104.0,101.0,103.0,13.3,1505.2,353.2,-0.8,1.8,2471.551,13.29,0.017,0.0
2023-12-23T04:04:03,42.805,6.029,0.0,0.005,-0.022,103.0,103.0,101.0,13.3,1505.2,1.5,-0.8,1.8,2471.559,13.29,0.005,0.0
2023-12-23T04:07:03,42.805,6.029,0.017,-0.002,0.008,103.0,103.0,101.0,13.4,1505.2,2.2,-0.7,1.8,2471.582,13.29,0.017,96.7
2023-12-23T04:10:03,42.805,6.029,0.006,0.01,-0.015,103.0,103.0,101.0,13.4,1505.2,341.0,-0.8,1.8,2471.559,13.29,0.011,31.0
2023-12-23T04:13:03,42.805,6.029,0.004,0.004,-0.042,103.0,102.0,102.0,13.4,1505.2,345.5,-0.8,1.8,2471.509,13.29,0.005,45.0
2023-12-23T04:16:03,42.805,6.029,0.004,0.013,-0.015,102.0,104.0,101.0,13.3,1505.2,348.8,-0.8,1.8,2471.542,13.29,0.013,17.1
2023-12-23T04:19:03,42.805,6.029,0.008,0.003,-0.011,103.0,103.0,102.0,13.3,1505.2,347.2,-0.7,1.8,2471.534,13.29,0.008,69.4
2023-12-23T04:22:03,42.805,6.029,0.003,0.017,-0.034,102.0,102.0,102.0,13.4,1505.2,1.6,-0.7,1.8,2471.518,13.29,0.017,10.0
2023-12-23T04:25:03,42.805,6.029,0.017,0.02,-0.011,103.0,104.0,101.0,13.3,1505.2,0.0,-0.7,1.8,2471.526,13.29,0.026,40.4
2023-12-23T04:28:03,42.805,6.029,-0.017,0.017,-0.049,103.0,103.0,100.0,13.3,1505.2,351.0,-0.8,1.8,2471.585,13.29,0.024,315.0
2023-12-23T04:31:03,42.805,6.029,0.001,-0.018,-0.058,103.0,103.0,100.0,13.4,1505.2,338.9,-0.8,1.8,2471.56,13.29,0.018,176.8
2023-12-23T04:34:03,42.805,6.029,0.013,-0.003,-0.023,102.0,103.0,101.0,13.3,1505.2,348.8,-0.8,1.8,2471.521,13.29,0.013,103.0
2023-12-23T04:37:03,42.805,6.029,-0.001,-0.001,-0.014,102.0,103.0,102.0,13.4,1505.2,347.9,-0.7,1.8,2471.52,13.29,0.001,225.0
2023-12-23T04:40:03,42.805,6.029,0.016,-0.003,-0.026,103.0,102.0,101.0,13.4,1505.2,344.4,-0.8,1.8,2471.555,13.29,0.016,100.6
2023-12-23T04:43:03,42.805,6.029,-0.012,0.013,-0.039,102.0,103.0,101.0,13.3,1505.2,355.4,-0.8,1.8,2471.545,13.29,0.017,317.3
2023-12-23T04:46:03,42.805,6.029,-0.008,0.019,-0.017,102.0,102.0,101.0,13.4,1505.2,344.6,-0.8,1.8,2471.522,13.29,0.02,337.2
2023-12-23T04:49:03,42.805,6.029,-0.003,0.018,-0.03,103.0,104.0,101.0,13.4,1505.2,345.7,-0.8,1.8,2471.57,13.29,0.018,350.5
2023-12-23T04:52:03,42.805,6.029,-0.008,0.012,-0.019,103.0,102.0,102.0,13.4,1505.2,345.7,-0.8,1.8,2471.535,13.29,0.014,326.3
2023-12-23T04:55:03,42.805,6.029,0.006,0.003,-0.002,103.0,102.0,100.0,13.4,1505.2,354.8,-0.8,1.8,2471.544,13.29,0.006,63.4
2023-12-23T04:58:03,42.805,6.029,-0.001,0.007,-0.047,104.0,103.0,100.0,13.4,1505.2,357.4,-0.8,1.8,2471.558,13.29,0.007,351.9
2023-12-23T05:04:03,42.805,6.029,0.002,0.023,-0.03,102.0,103.0,101.0,13.4,1505.2,1.6,-0.8,1.8,2471.555,13.29,0.023,5.0
2023-12-23T05:07:03,42.805,6.029,-0.002,0.016,-0.025,102.0,103.0,101.0,13.4,1505.2,3.9,-0.8,1.8,2471.583,13.29,0.016,352.9
2023-12-23T05:10:03,42.805,6.029,0.011,0.011,-0.039,102.0,102.0,102.0,13.4,1505.2,352.5,-0.7,1.8,2471.567,13.29,0.015,45.0
2023-12-23T05:13:03,42.805,6.029,-0.015,0.023,-0.024,102.0,102.0,101.0,13.3,1505.2,351.2,-0.8,1.7,2471.552,13.29,0.027,326.9
2023-12-23T05:16:03,42.805,6.029,0.002,0.006,-0.042,103.0,102.0,101.0,13.4,1505.2,359.2,-0.7,1.8,2471.552,13.29,0.006,18.4
2023-12-23T05:19:03,42.805,6.029,0.002,0.006,-0.057,103.0,102.0,101.0,13.3,1505.2,3.1,-0.8,1.8,2471.548,13.29,0.006,18.4
2023-12-23T05:22:03,42.805,6.029,-0.011,-0.007,-0.05,104.0,101.0,101.0,13.4,1505.2,351.5,-0.8,1.8,2471.532,13.29,0.013,237.5
2023-12-23T05:25:03,42.805,6.029,-0.017,0.002,-0.034,101.0,105.0,101.0,13.3,1505.2,350.1,-0.8,1.8,2471.525,13.29,0.017,276.7
2023-12-23T05:28:03,42.805,6.029,-0.008,0.005,0.0,103.0,104.0,101.0,13.3,1505.2,349.4,-0.8,1.8,2471.519,13.29,0.009,302.0
2023-12-23T05:31:03,42.805,6.029,-0.005,0.014,-0.02,103.0,103.0,101.0,13.4,1505.2,351.1,-0.7,1.8,2471.518,13.29,0.014,340.4
2023-12-23T05:34:03,42.805,6.029,0.021,0.005,-0.043,103.0,102.0,102.0,13.4,1505.2,357.6,-0.8,1.8,2471.514,13.29,0.021,76.6
2023-12-23T05:37:03,42.805,6.029,-0.018,0.017,-0.025,103.0,102.0,101.0,13.4,1505.2,345.3,-0.7,1.8,2471.503,13.29,0.024,313.4
2023-12-23T05:40:03,42.805,6.029,0.001,-0.009,-0.012,102.0,102.0,101.0,13.4,1505.2,355.7,-0.7,1.8,2471.531,13.29,0.009,173.7
2023-12-23T05:43:03,42.805,6.029,-0.002,0.002,-0.056,103.0,103.0,102.0,13.4,1505.2,2.4,-0.8,1.8,2471.538,13.29,0.002,315.0
2023-12-23T05:46:03,42.805,6.029,-0.013,-0.003,-0.032,103.0,102.0,101.0,13.4,1505.2,345.4,-0.8,1.8,2471.512,13.29,0.013,257.0
2023-12-23T05:49:03,42.805,6.029,0.002,0.0,-0.031,102.0,104.0,101.0,13.3,1505.2,345.9,-0.7,1.8,2471.532,13.29,0.002,90.0
2023-12-23T05:52:03,42.805,6.029,-0.002,0.007,-0.02,102.0,104.0,101.0,13.4,1505.2,355.9,-0.8,1.8,2471.515,13.29,0.007,344.1
2023-12-23T05:55:03,42.805,6.029,-0.013,0.015,-0.02,102.0,102.0,102.0,13.4,1505.2,3.2,-0.8,1.8,2471.517,13.29,0.019,319.1
2023-12-23T05:58:03,42.805,6.029,0.016,-0.002,-0.035,103.0,103.0,101.0,13.4,1505.2,0.0,-0.8,1.9,2471.518,13.29,0.016,97.1
2023-12-23T06:04:03,42.805,6.029,-0.005,0.013,-0.003,102.0,101.0,101.0,13.3,1505.2,3.8,-0.7,1.8,2471.546,13.29,0.013,339.0
2023-12-23T06:07:03,42.805,6.029,-0.001,-0.017,-0.042,102.0,102.0,101.0,13.4,1505.2,344.7,-0.8,1.8,2471.539,13.29,0.017,183.4
2023-12-23T06:10:03,42.805,6.029,0.012,0.01,-0.016,102.0,103.0,100.0,13.4,1505.2,344.2,-0.8,1.8,2471.553,13.29,0.015,50.2
2023-12-23T06:13:03,42.805,6.029,0.0,0.004,-0.021,103.0,102.0,101.0,13.3,1505.2,0.0,-0.8,1.8,2471.54,13.29,0.004,0.0
2023-12-23T06:16:03,42.805,6.029,0.004,-0.012,-0.051,102.0,102.0,102.0,13.4,1505.2,351.1,-0.7,1.8,2471.512,13.29,0.012,161.6
2023-12-23T06:19:07,42.805,6.029,-0.002,-0.01,-0.034,103.0,102.0,101.0,13.3,1505.2,354.6,-0.8,1.8,2471.551,13.29,0.01,191.3
2023-12-23T06:22:03,42.805,6.029,-0.013,-0.003,-0.039,103.0,103.0,101.0,13.4,1505.2,349.1,-0.8,1.8,2471.543,13.29,0.013,257.0
2023-12-23T06:25:03,42.805,6.029,-0.009,0.001,-0.044,103.0,102.0,102.0,13.4,1505.2,2.4,-0.8,1.8,2471.526,13.29,0.009,276.3
2023-12-23T06:28:03,42.805,6.029,0.011,0.009,-0.013,102.0,103.0,102.0,13.4,1505.2,343.8,-0.8,1.8,2471.532,13.29,0.014,50.7
2023-12-23T06:31:03,42.805,6.029,-0.006,0.003,-0.036,104.0,102.0,101.0,13.4,1505.2,348.5,-0.8,1.8,2471.539,13.29,0.006,296.6
2023-12-23T06:34:03,42.805,6.029,0.001,0.022,-0.013,103.0,102.0,101.0,13.4,1505.2,0.7,-0.8,1.8,2471.544,13.29,0.022,2.6
2023-12-23T06:37:03,42.805,6.029,-0.006,0.018,-0.02,103.0,102.0,101.0,13.4,1505.2,339.4,-0.8,1.8,2471.521,13.29,0.018,341.6
2023-12-23T06:40:03,42.805,6.029,-0.003,0.002,-0.049,103.0,102.0,101.0,13.4,1505.2,344.8,-0.8,1.8,2471.532,13.29,0.003,303.7
2023-12-23T06:43:03,42.805,6.029,0.003,-0.01,-0.008,103.0,102.0,101.0,13.4,1505.2,3.1,-0.8,1.8,2471.493,13.29,0.01,163.3
2023-12-23T06:46:03,42.805,6.029,-0.011,0.0,-0.034,103.0,102.0,101.0,13.3,1505.2,340.4,-0.8,1.8,2471.518,13.29,0.011,270.0
2023-12-23T06:49:03,42.805,6.029,0.006,-0.006,-0.013,103.0,101.0,101.0,13.4,1505.2,353.6,-0.7,1.8,2471.514,13.29,0.008,135.0
2023-12-23T06:52:03,42.805,6.029,-0.005,-0.032,-0.05,102.0,103.0,101.0,13.4,1505.2,358.3,-0.7,1.8,2471.518,13.29,0.032,188.9
2023-12-23T06:55:03,42.805,6.029,-0.008,0.013,-0.048,102.0,103.0,102.0,13.4,1505.2,355.6,-0.8,1.8,2471.51,13.29,0.015,328.4
2023-12-23T06:58:03,42.805,6.029,0.002,-0.009,-0.051,103.0,103.0,100.0,13.4,1505.2,348.0,-0.8,1.8,2471.532,13.29,0.009,167.5
2023-12-23T07:04:03,42.805,6.029,0.004,0.013,-0.017,103.0,103.0,100.0,13.4,1505.2,355.7,-0.8,1.8,2471.534,13.29,0.013,17.1
2023-12-23T07:07:03,42.805,6.029,-0.005,-0.008,-0.05,103.0,104.0,101.0,13.4,1505.2,355.4,-0.8,1.8,2471.549,13.29,0.009,212.0
2023-12-23T07:10:03,42.805,6.029,0.001,-0.004,-0.049,103.0,101.0,103.0,13.4,1505.2,357.4,-0.8,1.8,2471.517,13.29,0.004,166.0
2023-12-23T07:13:03,42.805,6.029,-0.016,0.02,-0.018,102.0,103.0,101.0,13.4,1505.2,349.6,-0.8,1.8,2471.502,13.29,0.025,321.3
2023-12-23T07:16:03,42.805,6.029,-0.011,0.006,-0.063,104.0,103.0,101.0,13.3,1505.2,2.3,-0.8,1.8,2471.52,13.29,0.012,298.6
2023-12-23T07:19:03,42.805,6.029,0.009,-0.017,-0.022,103.0,103.0,100.0,13.3,1505.2,343.3,-0.8,1.8,2471.54,13.29,0.019,152.1
2023-12-23T07:22:03,42.805,6.029,0.0,-0.005,-0.035,103.0,102.0,102.0,13.4,1505.2,345.9,-0.8,1.8,2471.51,13.29,0.005,180.0
2023-12-23T07:25:03,42.805,6.029,0.003,0.001,-0.027,103.0,103.0,100.0,13.3,1505.2,349.8,-0.8,1.8,2471.529,13.29,0.003,71.6
2023-12-23T07:28:03,42.805,6.029,0.001,-0.002,-0.071,101.0,103.0,101.0,13.3,1505.2,343.9,-0.8,1.8,2471.526,13.29,0.002,153.4
2023-12-23T07:31:03,42.805,6.029,0.006,-0.004,-0.025,102.0,102.0,101.0,13.4,1505.2,345.9,-0.8,1.8,2471.519,13.29,0.007,123.7
2023-12-23T07:34:03,42.805,6.029,-0.012,0.014,-0.022,103.0,101.0,101.0,13.4,1505.2,351.8,-0.7,1.8,2471.515,13.29,0.018,319.4
2023-12-23T07:37:03,42.805,6.029,-0.01,0.011,-0.03,105.0,101.0,101.0,13.3,1505.2,3.2,-0.8,1.8,2471.501,13.29,0.014,317.7
2023-12-23T07:40:03,42.805,6.029,0.01,0.027,-0.015,102.0,102.0,101.0,13.4,1505.2,339.0,-0.8,1.8,2471.492,13.29,0.028,20.3
2023-12-23T07:43:03,42.805,6.029,0.007,0.018,-0.019,101.0,102.0,101.0,13.3,1505.2,350.6,-0.7,1.8,2471.502,13.29,0.019,21.2
2023-12-23T07:46:03,42.805,6.029,0.009,-0.007,-0.01,102.0,102.0,100.0,13.4,1505.2,349.8,-0.7,1.8,2471.482,13.29,0.011,127.9
2023-12-23T07:49:03,42.805,6.029,-0.009,0.002,-0.043,102.0,101.0,103.0,13.4,1505.2,350.2,-0.8,1.8,2471.521,13.29,0.009,282.5
2023-12-23T07:52:03,42.805,6.029,0.005,0.01,-0.044,101.0,101.0,102.0,13.4,1505.2,352.1,-0.8,1.8,2471.496,13.29,0.011,26.6
2023-12-23T07:55:03,42.805,6.029,0.007,0.024,-0.022,102.0,101.0,101.0,13.4,1505.2,356.5,-0.7,1.8,2471.505,13.29,0.025,16.3
2023-12-23T07:58:03,42.805,6.029,-0.003,-0.02,-0.042,101.0,103.0,101.0,13.3,1505.2,350.1,-0.8,1.8,2471.494,13.29,0.02,188.5
2023-12-23T08:04:03,42.805,6.029,0.001,0.023,-0.018,103.0,102.0,101.0,13.4,1505.2,344.0,-0.8,1.8,2471.537,13.29,0.023,2.5
2023-12-23T08:07:03,42.805,6.029,-0.012,0.006,-0.039,103.0,102.0,100.0,13.4,1505.2,358.4,-0.8,1.8,2471.534,13.29,0.013,296.6
2023-12-23T08:10:03,42.805,6.029,-0.004,-0.002,-0.062,102.0,102.0,101.0,13.4,1505.2,341.5,-0.8,1.8,2471.556,13.29,0.004,243.4
2023-12-23T08:13:03,42.805,6.029,-0.009,0.003,-0.048,103.0,102.0,101.0,13.4,1505.2,343.8,-0.8,1.8,2471.525,13.29,0.009,288.4
2023-12-23T08:16:03,42.805,6.029,-0.016,0.002,-0.017,102.0,103.0,100.0,13.4,1505.2,346.1,-0.7,1.8,2471.515,13.29,0.016,277.1
2023-12-23T08:19:03,42.805,6.029,-0.017,-0.012,-0.037,102.0,104.0,100.0,13.4,1505.2,353.9,-0.8,1.8,2471.496,13.29,0.02,234.8
2023-12-23T08:22:03,42.805,6.029,0.0,0.013,-0.033,101.0,102.0,101.0,13.4,1505.2,342.0,-0.8,1.8,2471.51,13.29,0.013,0.0
2023-12-23T08:25:03,42.805,6.029,-0.011,0.001,-0.029,103.0,102.0,101.0,13.4,1505.2,355.1,-0.8,1.8,2471.504,13.29,0.011,275.2
2023-12-23T08:28:03,42.805,6.029,0.012,-0.008,-0.011,104.0,103.0,99.0,13.4,1505.2,3.8,-0.8,1.8,2471.47,13.29,0.014,123.7
2023-12-23T08:31:03,42.805,6.029,-0.011,-0.001,-0.032,102.0,102.0,101.0,13.4,1505.2,341.0,-0.8,1.8,2471.51,13.29,0.011,264.8
2023-12-23T08:34:03,42.805,6.029,-0.028,-0.011,-0.051,103.0,102.0,100.0,13.3,1505.2,357.5,-0.8,1.8,2471.477,13.29,0.03,248.6
2023-12-23T08:37:03,42.805,6.029,0.011,0.004,-0.007,103.0,103.0,99.0,13.4,1505.2,348.0,-0.8,1.8,2471.467,13.29,0.011,70.0
2023-12-23T08:40:03,42.805,6.029,-0.005,-0.003,-0.016,102.0,103.0,102.0,13.4,1505.2,359.2,-0.7,1.8,2471.514,13.29,0.005,239.0
2023-12-23T08:43:03,42.805,6.029,0.0,-0.006,-0.053,102.0,102.0,101.0,13.4,1505.2,342.6,-0.8,1.8,2471.494,13.29,0.006,180.0
2023-12-23T08:46:03,42.805,6.029,0.005,0.0,-0.035,102.0,103.0,101.0,13.3,1505.2,349.8,-0.8,1.8,2471.493,13.29,0.005,90.0
2023-12-23T08:49:03,42.805,6.029,-0.016,0.009,-0.035,104.0,104.0,99.0,13.4,1505.2,348.0,-0.8,1.8,2471.485,13.29,0.018,299.4
2023-12-23T08:52:03,42.805,6.029,-0.005,0.008,-0.039,103.0,102.0,101.0,13.3,1505.2,3.1,-0.7,1.8,2471.444,13.29,0.009,328.0
2023-12-23T08:55:03,42.805,6.029,-0.004,-0.014,-0.052,102.0,102.0,101.0,13.4,1505.2,341.5,-0.8,1.8,2471.474,13.29,0.014,195.9
2023-12-23T08:58:03,42.805,6.029,-0.012,0.006,-0.024,103.0,102.0,100.0,13.4,1505.2,344.1,-0.8,1.8,2471.467,13.29,0.013,296.6
2023-12-23T09:04:03,42.805,6.029,0.0,-0.015,-0.037,102.0,103.0,101.0,13.3,1505.2,353.8,-0.8,1.8,2471.522,13.29,0.015,180.0
2023-12-23T09:07:03,42.805,6.029,0.016,0.0,-0.011,101.0,102.0,101.0,13.4,1505.2,351.7,-0.8,1.8,2471.51,13.29,0.016,90.0
2023-12-23T09:10:03,42.805,6.029,-0.005,-0.003,-0.035,102.0,101.0,101.0,13.4,1505.2,345.3,-0.7,1.8,2471.474,13.29,0.005,239.0
2023-12-23T09:13:03,42.805,6.029,-0.013,0.031,0.008,101.0,102.0,101.0,13.4,1505.2,345.4,-0.8,1.8,2471.5,13.29,0.033,337.3
2023-12-23T09:16:03,42.805,6.029,-0.006,-0.003,-0.011,102.0,101.0,101.0,13.3,1505.2,2.4,-0.8,1.8,2471.518,13.29,0.006,243.4
2023-12-23T09:19:03,42.805,6.029,-0.012,-0.004,-0.066,103.0,102.0,101.0,13.4,1505.2,341.7,-0.8,1.8,2471.522,13.29,0.012,251.6
2023-12-23T09:22:03,42.805,6.029,0.009,-0.021,-0.033,102.0,102.0,100.0,13.4,1505.2,340.7,-0.8,1.8,2471.476,13.29,0.022,156.8
2023-12-23T09:25:03,42.805,6.029,0.0,0.002,-0.019,101.0,101.0,102.0,13.3,1505.2,357.6,-0.8,1.8,2471.472,13.29,0.002,0.0
2023-12-23T09:28:03,42.805,6.029,-0.005,0.003,-0.036,103.0,100.0,101.0,13.3,1505.2,346.8,-0.8,1.8,2471.442,13.29,0.005,301.0
2023-12-23T09:31:03,42.805,6.029,-0.005,-0.001,-0.033,101.0,101.0,102.0,13.4,1505.2,351.0,-0.8,1.9,2471.496,13.29,0.005,258.7
2023-12-23T09:34:03,42.805,6.029,0.023,-0.008,-0.027,103.0,102.0,101.0,13.4,1505.2,343.1,-0.7,1.8,2471.444,13.29,0.024,109.2
2023-12-23T09:37:03,42.805,6.029,-0.002,-0.009,-0.038,103.0,102.0,101.0,13.3,1505.2,356.7,-0.8,1.8,2471.473,13.29,0.009,192.5
2023-12-23T09:40:03,42.805,6.029,-0.017,0.015,-0.003,102.0,102.0,101.0,13.4,1505.2,346.7,-0.8,1.8,2471.468,13.29,0.022,311.4
2023-12-23T09:43:03,42.805,6.029,-0.005,-0.015,-0.025,103.0,103.0,101.0,13.4,1505.2,347.7,-0.8,1.8,2471.469,13.29,0.015,198.4
2023-12-23T09:46:03,42.805,6.029,-0.002,-0.012,-0.037,104.0,101.0,102.0,13.4,1505.2,347.4,-0.7,1.8,2471.455,13.29,0.012,189.5
2023-12-23T09:49:03,42.805,6.029,0.009,-0.003,-0.03,102.0,103.0,101.0,13.3,1505.2,1.6,-0.8,1.8,2471.478,13.29,0.009,108.4
2023-12-23T09:52:03,42.805,6.029,-0.008,0.002,0.002,104.0,101.0,101.0,13.3,1505.2,352.7,-0.7,1.8,2471.482,13.29,0.008,284.0
2023-12-23T09:55:03,42.805,6.029,0.013,-0.018,-0.033,103.0,103.0,100.0,13.4,1505.2,339.9,-0.8,1.8,2471.445,13.29,0.022,144.2
2023-12-23T09:58:03,42.805,6.029,-0.027,-0.019,-0.047,105.0,103.0,102.0,13.4,1505.2,357.4,-0.8,1.8,2471.452,13.29,0.033,234.9